Regional Weather Roundup
Issued by NWS

Home | Current Version | Previous Version | Text Only | Print | Product List | Glossary On
Versions: 1 2 3 4 5 6 7 8 9 10 11 12 13 14 15 16 17 18 19 20 21 22 23 24 25 26 27 28 29 30 31 32 33 34 35 36 37 38 39 40 41 42 43 44 45 46 47 48 49 50
000
ASUS43 KFSD 260310
RWRSD

WEATHER ROUNDUP FOR SOUTH DAKOTA
NATIONAL WEATHER SERVICE SIOUX FALLS SD
1000 PM CDT WED MAY 25 2016

NOTE: "FAIR" INDICATES FEW OR NO CLOUDS BELOW 12,000 FEET WITH NO
SIGNIFICANT WEATHER AND/OR OBSTRUCTIONS TO VISIBILITY.


SDZ001>005-009-010-012>017-260400-
NORTHWEST AND NORTH CENTRAL SOUTH DAKOTA

CITY           SKY/WX    TMP DP  RH WIND       PRES   REMARKS
BUFFALO          N/A     58  45  62 NW9       29.80S
FAITH            N/A     58  41  53 N5        29.85R
MOBRIDGE       CLEAR     58  49  72 NW7       29.78R
$$

SDZ012>016-024>037-041>051-057-063-072>074-260400-
SOUTHWEST AND SOUTH CENTRAL SOUTH DAKOTA

CITY           SKY/WX    TMP DP  RH WIND       PRES   REMARKS
RAPID CTY ARPT PTCLDY    50  48  93 NW6       29.90R
PIERRE         CLEAR     59  49  69 NW9       29.80R
CUSTER         CLOUDY    52  38  58 SW3       29.97R
ELLSWORTH AFB  CLEAR     52  47  84 W7        29.90R
PHILIP         PTCLDY    57  50  77 W3        29.85R
PINE RIDGE     CLEAR     54  42  64 CALM      29.90R
WINNER         FAIR      60  54  80 CALM      29.84R
$$

SDZ004>011-016>023-039-040-260400-
NORTHEAST SOUTH DAKOTA

CITY           SKY/WX    TMP DP  RH WIND       PRES   REMARKS
ABERDEEN       CLOUDY    60  51  72 SW9       29.74R
WATERTOWN      CLOUDY    66  53  63 S14       29.79F
BROOKINGS      CLOUDY    64  50  60 NW9       29.86R
SISSETON         N/A     68  52  56 NW6       29.71F
$$

SDZ017-020-022-023-036>040-048>070-260400-
SOUTHEAST SOUTH DAKOTA

CITY           SKY/WX    TMP DP  RH WIND       PRES   REMARKS
SIOUX FALLS    LGT RAIN  69  61  75 N7        29.82R
HURON          CLOUDY    58  54  86 S9        29.79R
CHAMBERLAIN    CLEAR     64  57  80 CALM      29.83S
MITCHELL       CLOUDY    67  61  81 N5        29.80R
YANKTON        CLOUDY    55  52  88 N8        29.83R THUNDER
$$

ABBREVIATIONS USED IN REMARKS
   TC - TEMPERATURE IN CELSIUS
  WCI - WIND CHILL INDEX
   HX - HEAT INDEX
  VSB - VISIBILITY




USA.gov is the U.S. government's official web portal to all federal, state and local government web resources and services.